Flag for Germany Weather past 2 weeks in Wiehl, North Rhine-Westphalia, Germany

Now
52 °F

Light rain. Broken clouds.


Feels Like: 47 °F
Forecast: 46 / 50 °F
Wind: 14 mph from West

Location: Koeln / Bonn

Current Time: Dec 22, 2014 at 4:57:43 PM

Latest Report: Dec 22, 2014 at 4:20 PM


Visibility: N/A

Pressure: 30.12 "Hg

Humidity: 77%

Dew point: 45 °F

Location of WiehlLocation

Historic Weather in Wiehl — Graph

°F

Wiehl temperature yesterday

Maximum temperature yesterday: 48 °F (at 11:50 PM)
Minimum temperature yesterday: 39 °F (at 1:20 AM)
Average temperature yesterday: 44 °F

Past Weeks' High & Low Weather Summary

 TemperatureHumidityPressure
High55 °F (Dec 18, 5:20 PM)100% (Dec 8, 10:20 PM)30.42 "Hg (Dec 8, 10:20 PM)
Low30 °F (Dec 14, 10:50 PM)66% (Dec 7, 3:20 PM)29.45 "Hg (Dec 12, 5:20 PM)
Average42 °F86%29.99 "Hg
* Reported Dec 7 3:20 PM — Dec 22 3:50 PM, Wiehl, Weather by CustomWeather, © 2014

Note: Actual official high and low records may vary slightly from our data, if they occured in-between our weather recording intervals... More about our weather records

Advertising

Wiehl weather history for previous 24 hours

 ConditionsComfort  
Time TempWeatherWind HumidityBarometerVisibility
3:50 PM
Dec 22
52 °FLight rain. Partly sunny.20 mph82%30.12 "HgN/A
3:20 PM50 °FLight rain. Partly sunny.9 mph82%30.12 "HgN/A
2:50 PM50 °FPartly sunny.14 mph76%30.09 "HgN/A
2:20 PM50 °FPartly sunny.16 mph76%30.09 "HgN/A
1:50 PM50 °FPartly sunny.14 mph76%30.09 "HgN/A
1:20 PM50 °FPartly sunny.14 mph76%30.12 "HgN/A
12:50 PM50 °FPartly sunny.14 mph76%30.12 "HgN/A
12:20 PM50 °FPartly sunny.18 mph71%30.12 "HgN/A
11:50 AM50 °FPartly sunny.18 mph71%30.12 "HgN/A
11:20 AM48 °FPartly sunny.15 mph76%30.15 "HgN/A
10:50 AM48 °FPartly sunny.16 mph76%30.15 "HgN/A
10:20 AM48 °FPartly sunny.12 mph76%30.15 "HgN/A
9:50 AM48 °FPartly sunny.9 mph76%30.15 "HgN/A
9:20 AM48 °FPartly sunny.12 mph76%30.15 "HgN/A
8:50 AM48 °FPartly sunny.12 mph76%30.15 "HgN/A
8:20 AM48 °FPassing clouds.12 mph82%30.15 "HgN/A
7:50 AM48 °FPassing clouds.13 mph76%30.15 "HgN/A
7:20 AM48 °FPassing clouds.12 mph76%30.15 "HgN/A
6:50 AM48 °FPassing clouds.13 mph82%30.15 "HgN/A
6:20 AM48 °FPassing clouds.13 mph82%30.15 "HgN/A
5:50 AM46 °FLight rain. Partly cloudy.10 mph87%30.15 "HgN/A
5:20 AM48 °FLight rain. Overcast.12 mph82%30.15 "HgN/A
4:20 AM48 °FOvercast.10 mph76%30.18 "HgN/A
3:50 AM48 °FOvercast.9 mph76%30.18 "HgN/A
3:20 AM48 °FOvercast.9 mph76%30.21 "HgN/A
2:50 AM48 °FOvercast.10 mph76%30.21 "HgN/A
2:20 AM48 °FOvercast.12 mph76%30.21 "HgN/A
1:50 AM48 °FOvercast.13 mph76%30.21 "HgN/A
1:20 AM48 °FOvercast.10 mph71%30.21 "HgN/A
12:50 AM46 °FOvercast.12 mph76%30.24 "HgN/A
12:20 AM46 °FOvercast.13 mph82%30.24 "HgN/A
11:50 PM
Dec 21
48 °FOvercast.13 mph71%30.27 "HgN/A
11:20 PM46 °FPassing clouds.14 mph82%30.27 "HgN/A
10:20 PM46 °FLight rain. Partly cloudy.12 mph76%30.27 "HgN/A
9:50 PM46 °FPassing clouds.13 mph82%30.27 "HgN/A
9:20 PM46 °FPartly cloudy.12 mph82%30.27 "HgN/A
8:50 PM46 °FOvercast.14 mph82%30.27 "HgN/A
8:20 PM46 °FOvercast.12 mph82%30.27 "HgN/A
7:50 PM46 °FOvercast.10 mph82%30.30 "HgN/A
7:20 PM46 °FLight rain. Passing clouds.9 mph76%30.30 "HgN/A
6:50 PM46 °FLight rain. Passing clouds.9 mph76%30.30 "HgN/A
6:20 PM46 °FLight rain. Passing clouds.9 mph76%30.30 "HgN/A
5:50 PM46 °FLight rain. Passing clouds.12 mph76%30.30 "HgN/A
5:20 PM46 °FLight rain. Partly cloudy.10 mph76%30.30 "HgN/A
4:50 PM46 °FLight rain. Passing clouds.13 mph76%30.30 "HgN/A
4:20 PM46 °FLight rain. Partly sunny.12 mph76%30.30 "HgN/A
Weather by CustomWeather, © 2014

See weather overviewHow to use our weather pages